TimeAKDT,TemperatureF,Dew PointF,Humidity,Sea Level PressureIn,VisibilityMPH,Wind Direction,Wind SpeedMPH,Gust SpeedMPH,PrecipitationIn,Events,Conditions,WindDirDegrees,DateUTC
12:53 AM,3.0,-2.9,76,30.62,10.0,ENE,3.5,-,N/A,,Clear,60,2013-03-12 08:53:00
1:53 AM,-2.9,-8.0,79,30.62,10.0,ENE,5.8,-,N/A,,Partly Cloudy,60,2013-03-12 09:53:00
2:53 AM,-7.1,-11.9,79,30.62,10.0,NE,9.2,-,N/A,,Partly Cloudy,40,2013-03-12 10:53:00
3:53 AM,-2.0,-8.0,76,30.62,10.0,ENE,4.6,-,N/A,,Partly Cloudy,70,2013-03-12 11:53:00
4:53 AM,-7.1,-9.9,87,30.62,10.0,NE,6.9,-,N/A,,Partly Cloudy,50,2013-03-12 12:53:00
5:53 AM,-2.0,-8.0,76,30.62,10.0,Calm,Calm,-,N/A,,Partly Cloudy,0,2013-03-12 13:53:00
6:53 AM,-7.1,-13.0,75,30.61,10.0,Calm,Calm,-,N/A,,Partly Cloudy,0,2013-03-12 14:53:00
7:53 AM,-11.0,-17.0,75,30.61,10.0,NE,4.6,-,N/A,,Partly Cloudy,50,2013-03-12 15:53:00
8:53 AM,-8.0,-15.0,71,30.61,10.0,Calm,Calm,-,N/A,,Partly Cloudy,0,2013-03-12 16:53:00
9:53 AM,-7.1,-11.9,79,30.61,10.0,Calm,Calm,-,N/A,,Partly Cloudy,0,2013-03-12 17:53:00
10:53 AM,-2.0,-5.1,87,30.59,10.0,Calm,Calm,-,N/A,,Clear,0,2013-03-12 18:53:00
11:53 AM,6.1,1.0,80,30.58,10.0,Calm,Calm,-,N/A,,Clear,0,2013-03-12 19:53:00
12:53 PM,10.0,1.0,67,30.57,10.0,Calm,Calm,-,N/A,,Clear,0,2013-03-12 20:53:00
1:53 PM,16.0,3.0,57,30.55,10.0,Calm,Calm,-,N/A,,Clear,0,2013-03-12 21:53:00
2:53 PM,19.0,1.9,47,30.53,10.0,Calm,Calm,-,N/A,,Clear,0,2013-03-12 22:53:00
3:53 PM,19.0,-0.0,43,30.50,10.0,Calm,Calm,-,N/A,,Clear,0,2013-03-12 23:53:00
4:53 PM,21.9,-2.0,35,30.47,10.0,Calm,Calm,-,N/A,,Clear,0,2013-03-13 00:53:00
5:53 PM,21.9,-2.9,34,30.45,10.0,Calm,Calm,-,N/A,,Clear,0,2013-03-13 01:53:00
6:53 PM,17.1,-2.9,41,30.43,10.0,Calm,Calm,-,N/A,,Clear,0,2013-03-13 02:53:00
7:53 PM,9.0,-5.1,53,30.42,10.0,Calm,Calm,-,N/A,,Clear,0,2013-03-13 03:53:00
8:53 PM,3.9,-6.0,64,30.42,10.0,Calm,Calm,-,N/A,,Clear,0,2013-03-13 04:53:00
9:53 PM,-2.9,-9.0,75,30.41,10.0,Calm,Calm,-,N/A,,Clear,0,2013-03-13 05:53:00
10:53 PM,-8.0,-11.0,86,30.40,10.0,Calm,Calm,-,N/A,,Clear,0,2013-03-13 06:53:00
11:53 PM,-5.1,-11.9,72,30.39,10.0,NE,5.8,-,N/A,,Clear,40,2013-03-13 07:53:00